This is the latest recevied weather packets stored in our database for station/object WA1OUI. If no packets are shown the sender has not sent any weather packets the latest 10 day(s).
| Time | Temp. | Humidity | Pressure | Rain* | Wind** | Luminosity | Snow |
|---|---|---|---|---|---|---|---|
| 1777761505 | 12.22° C | 50% | 1008.4 hPa | 0 mm | - | 21 W/m² | - |
| 1777761203 | 12.78° C | 52% | 1008.2 hPa | 0 mm | - | 26 W/m² | - |
| 1777760901 | 12.78° C | 52% | 1008.4 hPa | 0 mm | - | 24 W/m² | - |
| 1777760598 | 12.78° C | 48% | 1008.3 hPa | 0 mm | - | 30 W/m² | - |
| 1777760294 | 12.78° C | 47% | 1008.2 hPa | 0 mm | - | 32 W/m² | - |
| 1777759990 | 12.78° C | 48% | 1008.2 hPa | 0 mm | - | 30 W/m² | - |
| 1777759688 | 12.78° C | 47% | 1008.1 hPa | 0 mm | - | 31 W/m² | - |
| 1777759383 | 12.78° C | 49% | 1008.3 hPa | 0 mm | - | 41 W/m² | - |
| 1777759080 | 13.33° C | 50% | 1008.1 hPa | 0 mm | - | 55 W/m² | - |
| 1777758777 | 13.33° C | 51% | 1008.1 hPa | 0 mm | - | 57 W/m² | - |
| 1777758474 | 13.33° C | 50% | 1008 hPa | 0 mm | - | 70 W/m² | - |
| 1777758171 | 13.33° C | 52% | 1008 hPa | 0 mm | - | 78 W/m² | - |
| 1777757868 | 13.33° C | 55% | 1007.9 hPa | 0 mm | - | 88 W/m² | - |
| 1777757565 | 13.89° C | 53% | 1007.9 hPa | 0 mm | - | 93 W/m² | - |
| 1777757264 | 13.89° C | 50% | 1007.9 hPa | 0 mm | - | 47 W/m² | - |
| 1777756962 | 13.89° C | 51% | 1007.8 hPa | 0 mm | - | 46 W/m² | - |
| 1777756657 | 14.44° C | 48% | 1007.7 hPa | 0 mm | - | 62 W/m² | - |
| 1777756355 | 14.44° C | 53% | 1007.7 hPa | 0 mm | - | 97 W/m² | - |
| 1777756052 | 13.89° C | 49% | 1007.6 hPa | 0 mm | - | 171 W/m² | - |
| 1777755749 | 13.89° C | 45% | 1007.6 hPa | 0 mm | - | 139 W/m² | - |
| 1777755446 | 13.89° C | 46% | 1007.6 hPa | 0 mm | - | 134 W/m² | - |
| 1777755142 | 13.89° C | 48% | 1007.8 hPa | 0 mm | - | 136 W/m² | - |
| 1777754839 | 13.89° C | 50% | 1007.8 hPa | 0 mm | - | 138 W/m² | - |
| 1777754537 | 13.89° C | 50% | 1008 hPa | 0 mm | - | 136 W/m² | - |
| 1777754234 | 13.89° C | 50% | 1008 hPa | 0 mm | - | 221 W/m² | - |
* Rain latest hour (hover to see other rain measurements)
** Current wind speed in m/s (hover to see current wind gust speed)